Overview Statistics Trail Chart Weather Telemetry Raw packets
 

This is the latest recevied weather packets stored in our database for station/object 4S6DRJ-13. If no packets are shown the sender has not sent any weather packets the latest 10 day(s).

<< 228 229 230 231 232 233 234 >>
Time Temp. Humidity Pressure Rain* Wind** Luminosity Snow
1788129861 27.78° C 83% 1008.7 hPa 0 mm 0.89 m/s, 194° 0 W/m² -
1788129800 27.78° C 83% 1009 hPa 0 mm 0.89 m/s, 8° 0 W/m² -
1788129739 27.78° C 83% 1008.9 hPa 0 mm 0.89 m/s, 163° 0 W/m² -
1788129678 27.78° C 83% 1008.8 hPa 0 mm 0.89 m/s, 247° 0 W/m² -
1788129556 27.78° C 84% 1009 hPa 0 mm 1.79 m/s, 280° 0 W/m² -
1788129495 27.78° C 84% 1008.8 hPa 0 mm 0.89 m/s, 97° 0 W/m² -
1788129434 27.78° C 84% 1008.9 hPa 0 mm 1.79 m/s, 223° 0 W/m² -
1788129373 27.78° C 84% 1009 hPa 0 mm 0.89 m/s, 271° 0 W/m² -
1788129312 27.78° C 84% 1008.9 hPa 0 mm 1.34 m/s, 335° 0 W/m² -
1788129251 27.78° C 84% 1008.8 hPa 0 mm 0 m/s 0 W/m² -
1788129190 27.78° C 84% 1008.9 hPa 0 mm 0 m/s 0 W/m² -
1788129129 27.78° C 84% 1008.8 hPa 0 mm 0.45 m/s, 327° 0 W/m² -
1788129068 27.78° C 83% 1008.8 hPa 0 mm 0.89 m/s, 324° 0 W/m² -
1788129015 27.78° C 83% 1008.9 hPa 0 mm 0.89 m/s, 331° 0 W/m² -
1788128946 27.78° C 83% 1008.9 hPa 0 mm 1.34 m/s, 194° 0 W/m² -
1788128885 27.78° C 83% 1008.8 hPa 0 mm 1.34 m/s, 207° 0 W/m² -
1788128824 27.78° C 83% 1008.9 hPa 0 mm 1.34 m/s, 288° 0 W/m² -
1788128763 27.78° C 83% 1008.9 hPa 0 mm 0.45 m/s, 301° 0 W/m² -
1788128702 27.78° C 83% 1008.9 hPa 0 mm 1.34 m/s, 233° 0 W/m² -
1788128641 27.78° C 83% 1008.8 hPa 0 mm 0.45 m/s, 219° 0 W/m² -
1788128580 27.78° C 83% 1009 hPa 0 mm 0.89 m/s, 277° 0 W/m² -
1788128519 27.78° C 83% 1008.9 hPa 0 mm 1.34 m/s, 255° 0 W/m² -
1788128458 27.78° C 83% 1009 hPa 0 mm 0.89 m/s, 292° 0 W/m² -
1788128397 27.78° C 83% 1008.9 hPa 0 mm 1.34 m/s, 282° 0 W/m² -
1788128336 27.78° C 83% 1008.8 hPa 0 mm 0.45 m/s, 237° 0 W/m² -

* Rain latest hour (hover to see other rain measurements)
** Current wind speed in m/s (hover to see current wind gust speed)